Time,TemperatureF,DewpointF,PressureIn,WindDirection,WindDirectionDegrees,WindSpeedMPH,WindSpeedGustMPH,Humidity,HourlyPrecipIn,Conditions,Clouds,dailyrainin,SolarRadiationWatts/m^2,SoftwareType,DateUTC
2013-04-25 00:01:00,48.2,36.2,30.00,NE,42,0.0,0.0,63,0.00,,---,0.00,0.00,VWS V14.01,2013-04-25 07:01:00,
2013-04-25 00:06:00,48.1,36.5,29.99,NE,42,0.0,0.0,64,0.00,,---,0.00,0.00,VWS V14.01,2013-04-25 07:06:00,
2013-04-25 00:11:00,48.0,36.4,29.99,NE,42,0.0,1.0,64,0.00,,---,0.00,0.00,VWS V14.01,2013-04-25 07:11:00,
2013-04-25 00:16:00,47.8,36.6,29.99,NE,42,0.0,1.0,65,0.00,,---,0.00,0.00,VWS V14.01,2013-04-25 07:16:00,
2013-04-25 00:21:00,47.7,36.9,29.99,NNE,32,0.0,1.0,66,0.00,,---,0.00,0.00,VWS V14.01,2013-04-25 07:21:00,
2013-04-25 00:26:00,47.5,36.7,29.99,NNE,32,0.0,1.0,66,0.00,,---,0.00,0.00,VWS V14.01,2013-04-25 07:26:00,
2013-04-25 00:31:00,47.4,36.6,29.99,NNE,32,0.0,1.0,66,0.00,,---,0.00,0.00,VWS V14.01,2013-04-25 07:31:00,
2013-04-25 00:36:00,47.4,36.6,29.99,NNE,32,0.0,0.0,66,0.00,,---,0.00,0.00,VWS V14.01,2013-04-25 07:36:00,
2013-04-25 00:41:00,47.3,36.9,29.99,NNE,32,0.0,0.0,67,0.00,,---,0.00,0.00,VWS V14.01,2013-04-25 07:41:00,
2013-04-25 00:46:00,47.1,36.7,29.99,NNE,32,0.0,0.0,67,0.00,,---,0.00,0.00,VWS V14.01,2013-04-25 07:46:00,
2013-04-25 00:51:00,46.9,36.5,29.99,NE,53,0.0,2.0,67,0.00,,---,0.00,0.00,VWS V14.01,2013-04-25 07:51:00,
2013-04-25 00:56:00,46.8,36.4,29.99,NE,53,0.0,2.0,67,0.00,,---,0.00,0.00,VWS V14.01,2013-04-25 07:56:00,
2013-04-25 01:01:00,46.7,36.7,29.99,NE,53,0.0,0.0,68,0.00,,---,0.00,0.00,VWS V14.01,2013-04-25 08:01:00,
2013-04-25 01:06:00,46.5,36.5,29.99,NE,53,0.0,0.0,68,0.00,,---,0.00,0.00,VWS V14.01,2013-04-25 08:06:00,
2013-04-25 01:11:00,46.3,36.3,29.99,NE,53,0.0,0.0,68,0.00,,---,0.00,0.00,VWS V14.01,2013-04-25 08:11:00,
2013-04-25 01:16:00,46.1,36.5,29.99,NE,53,0.0,0.0,69,0.00,,---,0.00,0.00,VWS V14.01,2013-04-25 08:16:00,
2013-04-25 01:21:00,45.9,36.3,29.99,NE,53,0.0,0.0,69,0.00,,---,0.00,0.00,VWS V14.01,2013-04-25 08:21:00,
2013-04-25 01:26:00,45.8,36.2,29.99,NE,49,0.0,0.0,69,0.00,,---,0.00,0.00,VWS V14.01,2013-04-25 08:26:00,
2013-04-25 01:31:00,45.7,36.1,29.98,NE,51,0.0,0.0,69,0.00,,---,0.00,0.00,VWS V14.01,2013-04-25 08:31:00,
2013-04-25 01:36:00,45.6,36.0,29.98,NE,36,1.0,2.0,69,0.00,,---,0.00,0.00,VWS V14.01,2013-04-25 08:36:00,
2013-04-25 01:41:00,45.6,36.0,29.98,NE,51,0.0,1.0,69,0.00,,---,0.00,0.00,VWS V14.01,2013-04-25 08:41:00,
2013-04-25 01:46:00,45.6,36.0,29.98,NE,46,0.0,2.0,69,0.00,,---,0.00,0.00,VWS V14.01,2013-04-25 08:46:00,
2013-04-25 01:51:00,45.6,36.0,29.98,NE,46,0.0,2.0,69,0.00,,---,0.00,0.00,VWS V14.01,2013-04-25 08:51:00,
2013-04-25 01:56:00,45.6,36.0,29.98,NE,46,0.0,1.0,69,0.00,,---,0.00,0.00,VWS V14.01,2013-04-25 08:56:00,
2013-04-25 02:01:00,45.5,35.9,29.98,NE,46,0.0,1.0,69,0.00,,---,0.00,0.00,VWS V14.01,2013-04-25 09:01:00,
2013-04-25 02:07:00,45.5,35.9,29.98,ENE,62,0.0,2.0,69,0.00,,---,0.00,0.00,VWS V14.01,2013-04-25 09:07:00,
2013-04-25 02:12:00,45.5,35.9,29.98,ENE,65,2.0,2.0,69,0.00,,---,0.00,0.00,VWS V14.01,2013-04-25 09:12:00,
2013-04-25 02:17:00,45.5,35.9,29.98,NNE,23,0.0,3.0,69,0.00,,---,0.00,0.00,VWS V14.01,2013-04-25 09:17:00,
2013-04-25 02:22:00,45.5,35.6,29.98,NE,39,1.0,2.0,68,0.00,,---,0.00,0.00,VWS V14.01,2013-04-25 09:22:00,
2013-04-25 02:27:00,45.5,35.9,29.98,NNE,30,0.0,2.0,69,0.00,,---,0.00,0.00,VWS V14.01,2013-04-25 09:27:00,
2013-04-25 02:32:00,45.4,35.8,29.98,NNE,20,0.0,1.0,69,0.00,,---,0.00,0.00,VWS V14.01,2013-04-25 09:32:00,
2013-04-25 02:37:00,45.3,35.7,29.98,NE,41,0.0,1.0,69,0.00,,---,0.00,0.00,VWS V14.01,2013-04-25 09:37:00,
2013-04-25 02:42:00,45.3,35.7,29.98,NNE,26,0.0,2.0,69,0.00,,---,0.00,0.00,VWS V14.01,2013-04-25 09:42:00,
2013-04-25 02:47:00,45.2,36.0,29.98,ENE,78,0.0,3.0,70,0.00,,---,0.00,0.00,VWS V14.01,2013-04-25 09:47:00,
2013-04-25 02:52:00,45.2,36.0,29.98,NE,55,1.0,3.0,70,0.00,,---,0.00,0.00,VWS V14.01,2013-04-25 09:52:00,
2013-04-25 02:57:00,45.1,35.9,29.98,NE,49,0.0,2.0,70,0.00,,---,0.00,0.00,VWS V14.01,2013-04-25 09:57:00,
2013-04-25 03:02:00,45.1,35.5,29.98,NE,49,0.0,1.0,69,0.00,,---,0.00,0.00,VWS V14.01,2013-04-25 10:02:00,
2013-04-25 03:07:00,45.0,35.8,29.98,NE,49,0.0,1.0,70,0.00,,---,0.00,0.00,VWS V14.01,2013-04-25 10:07:00,
2013-04-25 03:12:00,45.0,35.8,29.98,NE,49,0.0,1.0,70,0.00,,---,0.00,0.00,VWS V14.01,2013-04-25 10:12:00,
2013-04-25 03:17:00,44.8,36.0,29.98,NE,48,0.0,1.0,71,0.00,,---,0.00,0.00,VWS V14.01,2013-04-25 10:17:00,
2013-04-25 03:22:00,44.6,35.8,29.98,NE,48,0.0,1.0,71,0.00,,---,0.00,0.00,VWS V14.01,2013-04-25 10:22:00,
2013-04-25 03:27:00,44.5,35.7,29.98,NE,48,0.0,0.0,71,0.00,,---,0.00,0.00,VWS V14.01,2013-04-25 10:27:00,
2013-04-25 03:32:00,44.4,35.6,29.97,NE,48,0.0,0.0,71,0.00,,---,0.00,0.00,VWS V14.01,2013-04-25 10:32:00,
2013-04-25 03:37:00,44.3,35.5,29.97,NE,48,0.0,0.0,71,0.00,,---,0.00,0.00,VWS V14.01,2013-04-25 10:37:00,
2013-04-25 03:42:00,44.2,35.4,29.97,NE,48,0.0,0.0,71,0.00,,---,0.00,0.00,VWS V14.01,2013-04-25 10:42:00,
2013-04-25 03:47:00,44.2,35.8,29.97,NE,48,0.0,0.0,72,0.00,,---,0.00,0.00,VWS V14.01,2013-04-25 10:47:00,
2013-04-25 03:52:00,44.1,35.7,29.97,NE,48,0.0,2.0,72,0.00,,---,0.00,0.00,VWS V14.01,2013-04-25 10:52:00,
2013-04-25 03:57:00,44.1,35.7,29.97,NE,48,0.0,0.0,72,0.00,,---,0.00,0.00,VWS V14.01,2013-04-25 10:57:00,
2013-04-25 04:02:00,44.1,35.7,29.97,NE,48,0.0,1.0,72,0.00,,---,0.00,0.00,VWS V14.01,2013-04-25 11:02:00,
2013-04-25 04:07:00,44.0,35.6,29.97,NE,48,0.0,0.0,72,0.00,,---,0.00,0.00,VWS V14.01,2013-04-25 11:07:00,
2013-04-25 04:12:00,44.0,35.6,29.97,NE,48,0.0,1.0,72,0.00,,---,0.00,0.00,VWS V14.01,2013-04-25 11:12:00,
2013-04-25 04:17:00,43.8,35.4,29.97,NE,48,0.0,1.0,72,0.00,,---,0.00,0.00,VWS V14.01,2013-04-25 11:17:00,
2013-04-25 04:22:00,43.7,35.3,29.97,NE,48,0.0,0.0,72,0.00,,---,0.00,0.00,VWS V14.01,2013-04-25 11:22:00,
2013-04-25 04:27:00,43.7,35.3,29.97,NE,48,0.0,0.0,72,0.00,,---,0.00,0.00,VWS V14.01,2013-04-25 11:27:00,
2013-04-25 04:32:00,43.7,35.3,29.96,NE,48,0.0,0.0,72,0.00,,---,0.00,0.00,VWS V14.01,2013-04-25 11:32:00,
2013-04-25 04:37:00,43.6,35.2,29.97,NE,49,0.0,2.0,72,0.00,,---,0.00,0.00,VWS V14.01,2013-04-25 11:37:00,
2013-04-25 04:42:00,43.7,35.3,29.97,NE,53,0.0,2.0,72,0.00,,---,0.00,0.00,VWS V14.01,2013-04-25 11:42:00,
2013-04-25 04:47:00,43.6,35.2,29.97,NE,53,0.0,2.0,72,0.00,,---,0.00,0.00,VWS V14.01,2013-04-25 11:47:00,
2013-04-25 04:52:00,43.5,35.1,29.97,NE,53,0.0,1.0,72,0.00,,---,0.00,0.00,VWS V14.01,2013-04-25 11:52:00,
2013-04-25 04:57:00,43.3,35.2,29.97,ENE,58,0.0,1.0,73,0.00,,---,0.00,0.00,VWS V14.01,2013-04-25 11:57:00,
2013-04-25 05:02:00,43.2,35.1,29.97,ENE,58,0.0,1.0,73,0.00,,---,0.00,0.00,VWS V14.01,2013-04-25 12:02:00,
2013-04-25 05:07:00,43.1,35.4,29.96,ENE,58,0.0,0.0,74,0.00,,---,0.00,0.00,VWS V14.01,2013-04-25 12:07:00,
2013-04-25 05:12:00,42.9,35.2,29.96,NNE,26,1.0,1.0,74,0.00,,---,0.00,0.00,VWS V14.01,2013-04-25 12:12:00,
2013-04-25 05:17:00,42.8,35.1,29.97,NNE,19,0.0,2.0,74,0.00,,---,0.00,0.00,VWS V14.01,2013-04-25 12:17:00,
2013-04-25 05:22:00,42.7,35.3,29.96,NNE,19,0.0,2.0,75,0.00,,---,0.00,0.00,VWS V14.01,2013-04-25 12:22:00,
2013-04-25 05:27:00,42.6,35.2,29.97,NNE,16,0.0,2.0,75,0.00,,---,0.00,0.00,VWS V14.01,2013-04-25 12:27:00,
2013-04-25 05:32:00,42.5,35.2,29.97,NE,38,0.0,2.0,75,0.00,,---,0.00,0.00,VWS V14.01,2013-04-25 12:32:00,
2013-04-25 05:37:00,42.4,35.0,29.97,NE,38,0.0,2.0,75,0.00,,---,0.00,0.00,VWS V14.01,2013-04-25 12:37:00,
2013-04-25 05:42:00,42.4,35.0,29.97,NE,38,0.0,1.0,75,0.00,,---,0.00,0.00,VWS V14.01,2013-04-25 12:42:00,
2013-04-25 05:47:00,42.3,35.0,29.96,NE,38,0.0,1.0,75,0.00,,---,0.00,0.00,VWS V14.01,2013-04-25 12:47:00,
2013-04-25 05:52:00,42.2,34.9,29.96,NE,38,0.0,0.0,75,0.00,,---,0.00,0.00,VWS V14.01,2013-04-25 12:52:00,
2013-04-25 05:57:00,42.2,35.2,29.96,NE,38,0.0,0.0,76,0.00,,---,0.00,0.00,VWS V14.01,2013-04-25 12:57:00,
2013-04-25 06:02:00,42.1,35.1,29.97,East,95,1.0,2.0,76,0.00,,---,0.00,0.00,VWS V14.01,2013-04-25 13:02:00,
2013-04-25 06:07:00,42.2,35.2,29.97,NNE,12,0.0,2.0,76,0.00,,---,0.00,0.00,VWS V14.01,2013-04-25 13:07:00,
2013-04-25 06:12:00,42.3,35.3,29.97,NNE,12,1.0,2.0,76,0.00,,---,0.00,5.00,VWS V14.01,2013-04-25 13:12:00,
2013-04-25 06:17:00,42.3,35.3,29.97,NNE,14,0.0,2.0,76,0.00,,---,0.00,7.00,VWS V14.01,2013-04-25 13:17:00,
2013-04-25 06:22:00,42.2,35.2,29.97,NNE,26,0.0,2.0,76,0.00,,---,0.00,9.00,VWS V14.01,2013-04-25 13:22:00,
2013-04-25 06:27:00,42.2,35.5,29.97,NNE,26,0.0,1.0,77,0.00,,---,0.00,12.00,VWS V14.01,2013-04-25 13:27:00,
2013-04-25 06:32:00,42.1,35.4,29.97,NNE,26,0.0,1.0,77,0.00,,---,0.00,14.00,VWS V14.01,2013-04-25 13:32:00,
2013-04-25 06:37:00,42.1,35.4,29.97,NNE,26,0.0,1.0,77,0.00,,---,0.00,16.00,VWS V14.01,2013-04-25 13:37:00,
2013-04-25 06:42:00,42.0,35.3,29.97,NNE,26,0.0,0.0,77,0.00,,---,0.00,19.00,VWS V14.01,2013-04-25 13:42:00,
2013-04-25 06:47:00,42.0,35.3,29.97,NNE,26,0.0,1.0,77,0.00,,---,0.00,21.00,VWS V14.01,2013-04-25 13:47:00,
2013-04-25 06:52:00,42.1,35.8,29.97,NNE,28,0.0,1.0,78,0.00,,---,0.00,25.00,VWS V14.01,2013-04-25 13:52:00,
2013-04-25 06:57:00,42.3,35.6,29.97,NNE,28,0.0,1.0,77,0.00,,---,0.00,26.00,VWS V14.01,2013-04-25 13:57:00,
2013-04-25 07:02:00,42.5,35.8,29.97,NNE,28,0.0,1.0,77,0.00,,---,0.00,28.00,VWS V14.01,2013-04-25 14:02:00,
2013-04-25 07:07:00,42.7,36.0,29.97,ENE,66,0.0,2.0,77,0.00,,---,0.00,33.00,VWS V14.01,2013-04-25 14:07:00,
2013-04-25 07:12:00,42.9,36.2,29.98,East,81,0.0,2.0,77,0.00,,---,0.00,39.00,VWS V14.01,2013-04-25 14:12:00,
2013-04-25 07:17:00,43.2,36.5,29.98,NE,46,0.0,2.0,77,0.00,,---,0.00,46.00,VWS V14.01,2013-04-25 14:17:00,
2013-04-25 07:22:00,43.4,36.3,29.98,NE,46,0.0,2.0,76,0.00,,---,0.00,46.00,VWS V14.01,2013-04-25 14:22:00,
2013-04-25 07:27:00,43.7,36.6,29.98,NE,46,0.0,2.0,76,0.00,,---,0.00,44.00,VWS V14.01,2013-04-25 14:27:00,
2013-04-25 07:33:00,44.0,36.6,29.98,NNE,24,0.0,2.0,75,0.00,,---,0.00,49.00,VWS V14.01,2013-04-25 14:33:00,
2013-04-25 07:38:00,44.7,37.3,29.98,NNE,24,1.0,2.0,75,0.00,,---,0.00,216.00,VWS V14.01,2013-04-25 14:38:00,
2013-04-25 07:43:00,45.9,37.8,29.98,ENE,73,0.0,3.0,73,0.00,,---,0.00,246.00,VWS V14.01,2013-04-25 14:43:00,
2013-04-25 07:48:00,47.1,38.5,29.98,ENE,73,0.0,2.0,72,0.00,,---,0.00,151.00,VWS V14.01,2013-04-25 14:48:00,
2013-04-25 07:53:00,48.2,38.5,29.98,ENE,73,0.0,1.0,69,0.00,,---,0.00,81.00,VWS V14.01,2013-04-25 14:53:00,
2013-04-25 07:58:00,48.5,38.1,29.98,NE,42,0.0,1.0,67,0.00,,---,0.00,84.00,VWS V14.01,2013-04-25 14:58:00,
2013-04-25 08:03:00,48.5,38.4,29.98,NE,42,0.0,2.0,68,0.00,,---,0.00,86.00,VWS V14.01,2013-04-25 15:03:00,
2013-04-25 08:08:00,48.4,38.0,29.98,ENE,62,1.0,3.0,67,0.00,,---,0.00,84.00,VWS V14.01,2013-04-25 15:08:00,
2013-04-25 08:13:00,48.5,38.4,29.99,NE,54,0.0,3.0,68,0.00,,---,0.00,83.00,VWS V14.01,2013-04-25 15:13:00,
2013-04-25 08:18:00,48.6,38.2,29.99,NE,54,0.0,1.0,67,0.00,,---,0.00,95.00,VWS V14.01,2013-04-25 15:18:00,
2013-04-25 08:23:00,49.0,38.2,29.99,NE,34,0.0,3.0,66,0.00,,---,0.00,371.00,VWS V14.01,2013-04-25 15:23:00,
2013-04-25 08:28:00,49.9,39.0,29.99,NE,34,0.0,3.0,66,0.00,,---,0.00,374.00,VWS V14.01,2013-04-25 15:28:00,
2013-04-25 08:33:00,51.5,39.3,29.99,NE,34,0.0,1.0,63,0.00,,---,0.00,397.00,VWS V14.01,2013-04-25 15:33:00,
2013-04-25 08:38:00,52.5,38.6,29.99,NE,34,0.0,0.0,59,0.00,,---,0.00,417.00,VWS V14.01,2013-04-25 15:38:00,
2013-04-25 08:43:00,53.7,40.6,29.99,NE,34,0.0,0.0,61,0.00,,---,0.00,359.00,VWS V14.01,2013-04-25 15:43:00,
2013-04-25 08:48:00,54.9,39.0,29.99,NE,34,0.0,0.0,55,0.00,,---,0.00,364.00,VWS V14.01,2013-04-25 15:48:00,
2013-04-25 08:53:00,55.7,39.3,29.99,NE,34,0.0,0.0,54,0.00,,---,0.00,443.00,VWS V14.01,2013-04-25 15:53:00,
2013-04-25 08:58:00,56.5,43.2,29.99,NE,34,0.0,0.0,61,0.00,,---,0.00,441.00,VWS V14.01,2013-04-25 15:58:00,
2013-04-25 09:03:00,57.6,43.4,29.99,WNW,288,0.0,2.0,59,0.00,,---,0.00,431.00,VWS V14.01,2013-04-25 16:03:00,
2013-04-25 09:08:00,58.2,42.6,29.99,WNW,288,0.0,2.0,56,0.00,,---,0.00,531.00,VWS V14.01,2013-04-25 16:08:00,
2013-04-25 09:13:00,58.1,43.0,29.99,SSW,193,1.0,3.0,57,0.00,,---,0.00,461.00,VWS V14.01,2013-04-25 16:13:00,
2013-04-25 09:18:00,58.6,41.5,29.99,SSW,193,0.0,3.0,53,0.00,,---,0.00,446.00,VWS V14.01,2013-04-25 16:18:00,
2013-04-25 09:23:00,59.2,43.5,29.99,SSW,204,0.0,2.0,56,0.00,,---,0.00,578.00,VWS V14.01,2013-04-25 16:23:00,
2013-04-25 09:28:00,60.6,42.9,30.00,SSW,204,0.0,2.0,52,0.00,,---,0.00,605.00,VWS V14.01,2013-04-25 16:28:00,
2013-04-25 09:33:00,61.6,42.8,29.99,SW,226,0.0,2.0,50,0.00,,---,0.00,619.00,VWS V14.01,2013-04-25 16:33:00,
2013-04-25 09:38:00,62.1,41.7,29.99,SW,226,0.0,2.0,47,0.00,,---,0.00,638.00,VWS V14.01,2013-04-25 16:38:00,
2013-04-25 09:43:00,62.7,42.8,29.99,South,172,0.0,2.0,48,0.00,,---,0.00,649.00,VWS V14.01,2013-04-25 16:43:00,
2013-04-25 09:48:00,63.5,43.5,29.99,NNW,331,2.0,4.0,48,0.00,,---,0.00,661.00,VWS V14.01,2013-04-25 16:48:00,
2013-04-25 09:53:00,64.1,41.2,29.99,SE,133,0.0,4.0,43,0.00,,---,0.00,673.00,VWS V14.01,2013-04-25 16:53:00,
2013-04-25 09:58:00,64.2,41.3,30.00,SSE,147,1.0,2.0,43,0.00,,---,0.00,686.00,VWS V14.01,2013-04-25 16:58:00,
2013-04-25 10:03:00,64.1,40.6,30.00,East,88,3.0,4.0,42,0.00,,---,0.00,701.00,VWS V14.01,2013-04-25 17:03:00,
2013-04-25 10:08:00,64.6,43.4,30.00,NNE,26,0.0,4.0,46,0.00,,---,0.00,703.00,VWS V14.01,2013-04-25 17:08:00,
2013-04-25 10:13:00,65.6,43.1,30.00,South,180,2.0,4.0,44,0.00,,---,0.00,724.00,VWS V14.01,2013-04-25 17:13:00,
2013-04-25 10:18:00,66.0,44.1,30.00,WSW,239,0.0,4.0,45,0.00,,---,0.00,738.00,VWS V14.01,2013-04-25 17:18:00,
2013-04-25 10:23:00,66.7,44.1,30.00,WNW,285,3.0,6.0,44,0.00,,---,0.00,752.00,VWS V14.01,2013-04-25 17:23:00,
2013-04-25 10:28:00,67.8,42.6,30.00,West,276,3.0,6.0,40,0.00,,---,0.00,761.00,VWS V14.01,2013-04-25 17:28:00,
2013-04-25 10:33:00,68.8,42.9,30.01,WNW,300,2.0,5.0,39,0.00,,---,0.00,772.00,VWS V14.01,2013-04-25 17:33:00,
2013-04-25 10:38:00,69.0,41.7,30.01,WSW,250,3.0,5.0,37,0.00,,---,0.00,784.00,VWS V14.01,2013-04-25 17:38:00,
2013-04-25 10:43:00,68.8,40.8,30.01,West,279,3.0,5.0,36,0.00,,---,0.00,798.00,VWS V14.01,2013-04-25 17:43:00,
2013-04-25 10:48:00,68.9,40.2,30.01,West,263,0.0,7.0,35,0.00,,---,0.00,831.00,VWS V14.01,2013-04-25 17:48:00,
2013-04-25 10:53:00,68.6,39.1,30.01,WNW,294,4.0,5.0,34,0.00,,---,0.00,689.00,VWS V14.01,2013-04-25 17:53:00,
2013-04-25 10:58:00,69.0,41.7,30.01,NW,305,1.0,4.0,37,0.00,,---,0.00,838.00,VWS V14.01,2013-04-25 17:58:00,
2013-04-25 11:03:00,69.5,42.1,30.01,West,269,2.0,5.0,37,0.00,,---,0.00,838.00,VWS V14.01,2013-04-25 18:03:00,
2013-04-25 11:08:00,70.2,41.3,30.01,WNW,288,2.0,5.0,35,0.00,,---,0.00,842.00,VWS V14.01,2013-04-25 18:08:00,
2013-04-25 11:13:00,70.6,40.9,30.02,WNW,298,2.0,4.0,34,0.00,,---,0.00,849.00,VWS V14.01,2013-04-25 18:13:00,
2013-04-25 11:18:00,69.9,40.3,30.01,WSW,244,2.0,5.0,34,0.00,,---,0.00,854.00,VWS V14.01,2013-04-25 18:18:00,
2013-04-25 11:23:00,69.8,41.7,30.01,WNW,286,2.0,5.0,36,0.00,,---,0.00,872.00,VWS V14.01,2013-04-25 18:23:00,
2013-04-25 11:28:00,69.5,37.6,30.01,SSE,164,1.0,5.0,31,0.00,,---,0.00,830.00,VWS V14.01,2013-04-25 18:28:00,
2013-04-25 11:33:00,69.1,41.0,30.01,WNW,299,0.0,5.0,36,0.00,,---,0.00,912.00,VWS V14.01,2013-04-25 18:33:00,
2013-04-25 11:38:00,69.4,40.6,30.01,WSW,257,2.0,4.0,35,0.00,,---,0.00,918.00,VWS V14.01,2013-04-25 18:38:00,
2013-04-25 11:43:00,69.6,40.0,30.01,South,173,5.0,5.0,34,0.00,,---,0.00,904.00,VWS V14.01,2013-04-25 18:43:00,
2013-04-25 11:48:00,68.9,41.6,30.01,SW,235,3.0,5.0,37,0.00,,---,0.00,904.00,VWS V14.01,2013-04-25 18:48:00,
2013-04-25 11:53:00,68.9,41.6,30.01,SW,235,3.0,4.0,37,0.00,,---,0.00,904.00,VWS V14.01,2013-04-25 18:53:00,
2013-04-25 11:58:00,69.5,42.1,30.01,SW,230,2.0,5.0,37,0.00,,---,0.00,909.00,VWS V14.01,2013-04-25 18:58:00,
2013-04-25 12:03:00,69.8,40.9,30.01,West,269,3.0,4.0,35,0.00,,---,0.00,912.00,VWS V14.01,2013-04-25 19:03:00,
2013-04-25 12:08:00,70.4,41.5,30.01,NW,304,3.0,6.0,35,0.00,,---,0.00,926.00,VWS V14.01,2013-04-25 19:08:00,
2013-04-25 12:13:00,71.6,44.0,30.01,WSW,246,3.0,6.0,37,0.00,,---,0.00,918.00,VWS V14.01,2013-04-25 19:13:00,
2013-04-25 12:18:00,72.4,44.0,30.01,SSW,200,2.0,6.0,36,0.00,,---,0.00,923.00,VWS V14.01,2013-04-25 19:18:00,
2013-04-25 12:23:00,71.6,42.5,30.01,SW,218,3.0,6.0,35,0.00,,---,0.00,921.00,VWS V14.01,2013-04-25 19:23:00,
2013-04-25 12:28:00,70.0,43.2,30.01,West,275,3.0,5.0,38,0.00,,---,0.00,921.00,VWS V14.01,2013-04-25 19:28:00,
2013-04-25 12:33:00,70.5,43.0,30.00,SE,144,0.0,6.0,37,0.00,,---,0.00,925.00,VWS V14.01,2013-04-25 19:33:00,
2013-04-25 12:38:00,71.3,42.3,30.00,South,183,0.0,5.0,35,0.00,,---,0.00,930.00,VWS V14.01,2013-04-25 19:38:00,
2013-04-25 12:43:00,71.1,42.1,30.01,West,263,3.0,4.0,35,0.00,,---,0.00,926.00,VWS V14.01,2013-04-25 19:43:00,
2013-04-25 12:48:00,72.0,42.9,30.00,West,261,2.0,5.0,35,0.00,,---,0.00,928.00,VWS V14.01,2013-04-25 19:48:00,
2013-04-25 12:53:00,72.4,42.5,30.00,SSW,199,0.0,5.0,34,0.00,,---,0.00,933.00,VWS V14.01,2013-04-25 19:53:00,
2013-04-25 12:59:00,73.1,43.8,30.01,NW,304,4.0,7.0,35,0.00,,---,0.00,933.00,VWS V14.01,2013-04-25 19:59:00,
2013-04-25 13:04:00,74.2,44.1,30.00,NW,304,1.0,7.0,34,0.00,,---,0.00,935.00,VWS V14.01,2013-04-25 20:04:00,
2013-04-25 13:09:00,74.6,42.0,30.01,SSW,204,0.0,6.0,31,0.00,,---,0.00,923.00,VWS V14.01,2013-04-25 20:09:00,
2013-04-25 13:14:00,74.0,42.3,30.00,WNW,293,3.0,6.0,32,0.00,,---,0.00,932.00,VWS V14.01,2013-04-25 20:14:00,
2013-04-25 13:19:00,74.3,43.4,30.01,SW,215,0.0,6.0,33,0.00,,---,0.00,930.00,VWS V14.01,2013-04-25 20:19:00,
2013-04-25 13:24:00,74.4,43.5,30.00,SSE,163,0.0,6.0,33,0.00,,---,0.00,928.00,VWS V14.01,2013-04-25 20:24:00,
2013-04-25 13:29:00,74.5,42.7,30.00,WNW,292,2.0,7.0,32,0.00,,---,0.00,925.00,VWS V14.01,2013-04-25 20:29:00,
2013-04-25 13:34:00,75.1,42.4,30.00,West,271,2.0,7.0,31,0.00,,---,0.00,925.00,VWS V14.01,2013-04-25 20:34:00,
2013-04-25 13:39:00,76.0,44.0,30.00,NNW,332,4.0,5.0,32,0.00,,---,0.00,925.00,VWS V14.01,2013-04-25 20:39:00,
2013-04-25 13:44:00,77.3,46.0,30.00,West,269,1.0,5.0,33,0.00,,---,0.00,914.00,VWS V14.01,2013-04-25 20:44:00,
2013-04-25 13:49:00,78.4,44.4,30.01,WSW,244,6.0,8.0,30,0.00,,---,0.00,904.00,VWS V14.01,2013-04-25 20:49:00,
2013-04-25 13:54:00,78.7,44.7,30.01,NNW,327,4.0,8.0,30,0.00,,---,0.00,907.00,VWS V14.01,2013-04-25 20:54:00,
2013-04-25 13:59:00,78.7,44.7,30.01,WNW,294,1.0,5.0,30,0.00,,---,0.00,898.00,VWS V14.01,2013-04-25 20:59:00,
2013-04-25 14:04:00,78.0,44.1,30.01,West,277,4.0,5.0,30,0.00,,---,0.00,891.00,VWS V14.01,2013-04-25 21:04:00,
2013-04-25 14:09:00,77.6,42.9,30.00,ENE,71,2.0,4.0,29,0.00,,---,0.00,886.00,VWS V14.01,2013-04-25 21:09:00,
2013-04-25 14:14:00,77.0,44.1,30.01,West,275,3.0,7.0,31,0.00,,---,0.00,874.00,VWS V14.01,2013-04-25 21:14:00,
2013-04-25 14:19:00,77.5,45.3,30.01,WSW,243,4.0,7.0,32,0.00,,---,0.00,860.00,VWS V14.01,2013-04-25 21:19:00,
2013-04-25 14:24:00,78.2,45.1,30.01,WNW,298,4.0,7.0,31,0.00,,---,0.00,877.00,VWS V14.01,2013-04-25 21:24:00,
2013-04-25 14:29:00,78.7,44.7,30.01,WNW,283,2.0,7.0,30,0.00,,---,0.00,865.00,VWS V14.01,2013-04-25 21:29:00,
2013-04-25 14:34:00,78.8,44.8,30.01,West,273,4.0,6.0,30,0.00,,---,0.00,853.00,VWS V14.01,2013-04-25 21:34:00,
2013-04-25 14:39:00,78.7,41.9,30.00,SSW,206,1.0,8.0,27,0.00,,---,0.00,851.00,VWS V14.01,2013-04-25 21:39:00,
2013-04-25 14:44:00,78.7,43.8,30.01,NW,316,2.0,6.0,29,0.00,,---,0.00,849.00,VWS V14.01,2013-04-25 21:44:00,
2013-04-25 14:49:00,79.3,44.3,30.00,WNW,293,3.0,7.0,29,0.00,,---,0.00,840.00,VWS V14.01,2013-04-25 21:49:00,
2013-04-25 14:54:00,79.5,44.5,30.00,WSW,240,2.0,7.0,29,0.00,,---,0.00,828.00,VWS V14.01,2013-04-25 21:54:00,
2013-04-25 14:59:00,79.0,42.2,30.00,WSW,248,1.0,6.0,27,0.00,,---,0.00,823.00,VWS V14.01,2013-04-25 21:59:00,
2013-04-25 15:04:00,78.6,45.5,30.01,WSW,248,2.0,6.0,31,0.00,,---,0.00,786.00,VWS V14.01,2013-04-25 22:04:00,
2013-04-25 15:09:00,78.2,43.4,30.01,SSE,161,1.0,6.0,29,0.00,,---,0.00,796.00,VWS V14.01,2013-04-25 22:09:00,
2013-04-25 15:14:00,77.9,44.9,30.00,West,272,4.0,6.0,31,0.00,,---,0.00,779.00,VWS V14.01,2013-04-25 22:14:00,
2013-04-25 15:19:00,78.3,44.3,30.00,SE,138,1.0,6.0,30,0.00,,---,0.00,763.00,VWS V14.01,2013-04-25 22:19:00,
2013-04-25 15:24:00,78.4,42.6,30.00,SSE,151,1.0,5.0,28,0.00,,---,0.00,759.00,VWS V14.01,2013-04-25 22:24:00,
2013-04-25 15:29:00,77.9,42.2,30.00,SE,138,2.0,7.0,28,0.00,,---,0.00,707.00,VWS V14.01,2013-04-25 22:29:00,
2013-04-25 15:34:00,77.1,45.0,30.00,WSW,248,2.0,5.0,32,0.00,,---,0.00,742.00,VWS V14.01,2013-04-25 22:34:00,
2013-04-25 15:39:00,77.2,43.4,30.00,WSW,240,5.0,5.0,30,0.00,,---,0.00,728.00,VWS V14.01,2013-04-25 22:39:00,
2013-04-25 15:44:00,77.4,44.4,30.00,South,181,2.0,6.0,31,0.00,,---,0.00,703.00,VWS V14.01,2013-04-25 22:44:00,
2013-04-25 15:49:00,77.1,43.3,30.00,WNW,288,4.0,7.0,30,0.00,,---,0.00,696.00,VWS V14.01,2013-04-25 22:49:00,
2013-04-25 15:54:00,76.7,43.0,30.00,WSW,258,3.0,7.0,30,0.00,,---,0.00,686.00,VWS V14.01,2013-04-25 22:54:00,
2013-04-25 15:59:00,77.1,45.0,30.00,West,267,2.0,5.0,32,0.00,,---,0.00,675.00,VWS V14.01,2013-04-25 22:59:00,
2013-04-25 16:04:00,77.5,44.5,30.00,West,261,1.0,5.0,31,0.00,,---,0.00,661.00,VWS V14.01,2013-04-25 23:04:00,
2013-04-25 16:09:00,77.0,42.3,30.00,SSE,153,1.0,5.0,29,0.00,,---,0.00,645.00,VWS V14.01,2013-04-25 23:09:00,
2013-04-25 16:14:00,76.1,44.1,30.00,WNW,302,3.0,8.0,32,0.00,,---,0.00,629.00,VWS V14.01,2013-04-25 23:14:00,
2013-04-25 16:19:00,76.0,43.2,30.00,SW,234,5.0,6.0,31,0.00,,---,0.00,613.00,VWS V14.01,2013-04-25 23:19:00,
2013-04-25 16:24:00,76.4,42.7,30.00,SSW,197,3.0,9.0,30,0.00,,---,0.00,601.00,VWS V14.01,2013-04-25 23:24:00,
2013-04-25 16:29:00,76.1,43.3,30.00,WSW,242,1.0,9.0,31,0.00,,---,0.00,589.00,VWS V14.01,2013-04-25 23:29:00,
2013-04-25 16:34:00,76.3,41.7,30.00,SSW,207,2.0,9.0,29,0.00,,---,0.00,577.00,VWS V14.01,2013-04-25 23:34:00,
2013-04-25 16:39:00,76.5,43.7,30.00,WNW,299,2.0,6.0,31,0.00,,---,0.00,557.00,VWS V14.01,2013-04-25 23:39:00,
2013-04-25 16:44:00,76.9,42.3,30.00,WSW,238,2.0,6.0,29,0.00,,---,0.00,547.00,VWS V14.01,2013-04-25 23:44:00,
2013-04-25 16:49:00,76.7,41.2,30.00,SW,232,2.0,5.0,28,0.00,,---,0.00,526.00,VWS V14.01,2013-04-25 23:49:00,
2013-04-25 16:54:00,76.0,43.2,30.00,West,263,1.0,5.0,31,0.00,,---,0.00,504.00,VWS V14.01,2013-04-25 23:54:00,
2013-04-25 16:59:00,75.5,42.8,30.00,WSW,242,5.0,11.0,31,0.00,,---,0.00,496.00,VWS V14.01,2013-04-25 23:59:00,
2013-04-25 17:04:00,75.5,42.8,30.00,West,261,3.0,11.0,31,0.00,,---,0.00,480.00,VWS V14.01,2013-04-26 00:04:00,
2013-04-25 17:10:00,75.8,43.0,30.00,West,267,2.0,6.0,31,0.00,,---,0.00,462.00,VWS V14.01,2013-04-26 00:10:00,
2013-04-25 17:15:00,75.8,43.0,30.00,NW,311,6.0,6.0,31,0.00,,---,0.00,431.00,VWS V14.01,2013-04-26 00:15:00,
2013-04-25 17:20:00,75.4,41.0,30.00,South,169,4.0,6.0,29,0.00,,---,0.00,364.00,VWS V14.01,2013-04-26 00:20:00,
2013-04-25 17:25:00,74.8,43.8,30.00,West,265,2.0,6.0,33,0.00,,---,0.00,355.00,VWS V14.01,2013-04-26 00:25:00,
2013-04-25 17:30:00,74.6,42.0,30.00,NW,305,5.0,7.0,31,0.00,,---,0.00,355.00,VWS V14.01,2013-04-26 00:30:00,
2013-04-25 17:35:00,74.3,41.7,30.00,SW,221,0.0,7.0,31,0.00,,---,0.00,359.00,VWS V14.01,2013-04-26 00:35:00,
2013-04-25 17:40:00,74.2,43.3,29.99,West,268,2.0,4.0,33,0.00,,---,0.00,339.00,VWS V14.01,2013-04-26 00:40:00,
2013-04-25 17:45:00,74.0,42.3,29.99,NW,305,0.0,4.0,32,0.00,,---,0.00,323.00,VWS V14.01,2013-04-26 00:45:00,
2013-04-25 17:50:00,73.5,41.9,30.00,WSW,246,0.0,4.0,32,0.00,,---,0.00,278.00,VWS V14.01,2013-04-26 00:50:00,
2013-04-25 17:55:00,73.1,43.1,30.00,WNW,286,2.0,6.0,34,0.00,,---,0.00,218.00,VWS V14.01,2013-04-26 00:55:00,
2013-04-25 18:00:00,72.6,41.9,30.00,WNW,302,3.0,6.0,33,0.00,,---,0.00,255.00,VWS V14.01,2013-04-26 01:00:00,
2013-04-25 18:05:00,72.2,42.3,30.00,West,267,5.0,6.0,34,0.00,,---,0.00,236.00,VWS V14.01,2013-04-26 01:05:00,
2013-04-25 18:10:00,71.8,42.0,30.00,WSW,252,2.0,5.0,34,0.00,,---,0.00,114.00,VWS V14.01,2013-04-26 01:10:00,
2013-04-25 18:15:00,71.4,40.8,30.00,WSW,250,2.0,3.0,33,0.00,,---,0.00,58.00,VWS V14.01,2013-04-26 01:15:00,
2013-04-25 18:20:00,71.0,41.2,30.00,WSW,243,0.0,3.0,34,0.00,,---,0.00,58.00,VWS V14.01,2013-04-26 01:20:00,
2013-04-25 18:25:00,70.8,43.3,30.00,West,281,0.0,3.0,37,0.00,,---,0.00,56.00,VWS V14.01,2013-04-26 01:25:00,
2013-04-25 18:30:00,70.5,41.6,30.00,West,281,0.0,3.0,35,0.00,,---,0.00,49.00,VWS V14.01,2013-04-26 01:30:00,
2013-04-25 18:35:00,70.3,41.4,30.00,West,281,1.0,2.0,35,0.00,,---,0.00,44.00,VWS V14.01,2013-04-26 01:35:00,
2013-04-25 18:40:00,70.0,42.6,30.00,NW,320,1.0,3.0,37,0.00,,---,0.00,42.00,VWS V14.01,2013-04-26 01:40:00,
2013-04-25 18:45:00,69.8,43.1,30.00,NW,320,2.0,3.0,38,0.00,,---,0.00,44.00,VWS V14.01,2013-04-26 01:45:00,
2013-04-25 18:50:00,69.5,41.4,30.00,NW,319,0.0,3.0,36,0.00,,---,0.00,40.00,VWS V14.01,2013-04-26 01:50:00,
2013-04-25 18:55:00,69.2,42.5,30.00,NW,304,0.0,3.0,38,0.00,,---,0.00,42.00,VWS V14.01,2013-04-26 01:55:00,
2013-04-25 19:00:00,68.9,42.3,30.00,WNW,302,0.0,3.0,38,0.00,,---,0.00,39.00,VWS V14.01,2013-04-26 02:00:00,
2013-04-25 19:05:00,68.7,42.1,30.00,WSW,246,0.0,2.0,38,0.00,,---,0.00,35.00,VWS V14.01,2013-04-26 02:05:00,
2013-04-25 19:10:00,68.4,40.4,30.00,WSW,246,0.0,1.0,36,0.00,,---,0.00,33.00,VWS V14.01,2013-04-26 02:10:00,
2013-04-25 19:15:00,68.2,42.3,30.00,WSW,246,0.0,0.0,39,0.00,,---,0.00,28.00,VWS V14.01,2013-04-26 02:15:00,
2013-04-25 19:20:00,67.9,42.1,30.00,WSW,246,0.0,0.0,39,0.00,,---,0.00,21.00,VWS V14.01,2013-04-26 02:20:00,
2013-04-25 19:25:00,67.6,43.7,30.00,WSW,246,0.0,0.0,42,0.00,,---,0.00,18.00,VWS V14.01,2013-04-26 02:25:00,
2013-04-25 19:30:00,67.2,43.4,30.00,WSW,246,0.0,0.0,42,0.00,,---,0.00,12.00,VWS V14.01,2013-04-26 02:30:00,
2013-04-25 19:35:00,66.7,42.9,30.00,WSW,246,0.0,0.0,42,0.00,,---,0.00,11.00,VWS V14.01,2013-04-26 02:35:00,
2013-04-25 19:40:00,66.0,43.5,30.00,WSW,246,0.0,0.0,44,0.00,,---,0.00,11.00,VWS V14.01,2013-04-26 02:40:00,
2013-04-25 19:45:00,65.4,42.9,30.00,WSW,246,0.0,0.0,44,0.00,,---,0.00,9.00,VWS V14.01,2013-04-26 02:45:00,
2013-04-25 19:50:00,64.8,43.0,30.00,WSW,246,0.0,0.0,45,0.00,,---,0.00,7.00,VWS V14.01,2013-04-26 02:50:00,
2013-04-25 19:55:00,64.2,43.0,30.01,WSW,246,0.0,0.0,46,0.00,,---,0.00,7.00,VWS V14.01,2013-04-26 02:55:00,
2013-04-25 20:00:00,63.7,43.7,30.01,WSW,246,0.0,0.0,48,0.00,,---,0.00,5.00,VWS V14.01,2013-04-26 03:00:00,
2013-04-25 20:05:00,63.2,43.7,30.01,WSW,246,0.0,0.0,49,0.00,,---,0.00,0.00,VWS V14.01,2013-04-26 03:05:00,
2013-04-25 20:10:00,62.6,42.7,30.01,WSW,246,0.0,0.0,48,0.00,,---,0.00,0.00,VWS V14.01,2013-04-26 03:10:00,
2013-04-25 20:15:00,62.2,42.8,30.01,WSW,246,0.0,0.0,49,0.00,,---,0.00,0.00,VWS V14.01,2013-04-26 03:15:00,
2013-04-25 20:20:00,61.7,42.9,30.01,WSW,246,0.0,0.0,50,0.00,,---,0.00,0.00,VWS V14.01,2013-04-26 03:20:00,
2013-04-25 20:25:00,61.3,42.5,30.01,WSW,246,0.0,0.0,50,0.00,,---,0.00,0.00,VWS V14.01,2013-04-26 03:25:00,
2013-04-25 20:30:00,60.9,42.2,30.01,WSW,246,0.0,0.0,50,0.00,,---,0.00,0.00,VWS V14.01,2013-04-26 03:30:00,
2013-04-25 20:35:00,60.5,41.8,30.02,WSW,246,0.0,0.0,50,0.00,,---,0.00,0.00,VWS V14.01,2013-04-26 03:35:00,
2013-04-25 20:40:00,60.3,42.1,30.02,WSW,246,0.0,0.0,51,0.00,,---,0.00,0.00,VWS V14.01,2013-04-26 03:40:00,
2013-04-25 20:45:00,60.1,42.4,30.02,WSW,246,0.0,0.0,52,0.00,,---,0.00,0.00,VWS V14.01,2013-04-26 03:45:00,
2013-04-25 20:50:00,59.9,42.2,30.02,WSW,246,0.0,0.0,52,0.00,,---,0.00,0.00,VWS V14.01,2013-04-26 03:50:00,
2013-04-25 20:55:00,59.6,42.0,30.03,WSW,246,0.0,0.0,52,0.00,,---,0.00,0.00,VWS V14.01,2013-04-26 03:55:00,
2013-04-25 21:00:00,59.4,41.8,30.03,WSW,246,0.0,0.0,52,0.00,,---,0.00,0.00,VWS V14.01,2013-04-26 04:00:00,
2013-04-25 21:01:00,59.4,42.3,30.03,WSW,246,0.0,0.0,53,0.00,,---,0.00,0.00,VWS V14.01,2013-04-26 04:01:00,
2013-04-25 21:06:00,59.1,42.0,30.03,WSW,246,0.0,0.0,53,0.00,,---,0.00,0.00,VWS V14.01,2013-04-26 04:06:00,
2013-04-25 21:11:00,59.0,41.9,30.03,WSW,246,0.0,0.0,53,0.00,,---,0.00,0.00,VWS V14.01,2013-04-26 04:11:00,
2013-04-25 21:16:00,59.0,42.4,30.03,WSW,246,0.0,0.0,54,0.00,,---,0.00,0.00,VWS V14.01,2013-04-26 04:16:00,
2013-04-25 21:21:00,59.0,42.4,30.03,WSW,246,0.0,0.0,54,0.00,,---,0.00,0.00,VWS V14.01,2013-04-26 04:21:00,
2013-04-25 21:26:00,58.8,42.7,30.03,WSW,246,0.0,0.0,55,0.00,,---,0.00,0.00,VWS V14.01,2013-04-26 04:26:00,
2013-04-25 21:31:00,58.6,43.0,30.04,WSW,246,0.0,0.0,56,0.00,,---,0.00,0.00,VWS V14.01,2013-04-26 04:31:00,
2013-04-25 21:36:00,58.4,42.8,30.04,WSW,246,0.0,0.0,56,0.00,,---,0.00,0.00,VWS V14.01,2013-04-26 04:36:00,
2013-04-25 21:41:00,58.2,42.6,30.04,WSW,246,0.0,0.0,56,0.00,,---,0.00,0.00,VWS V14.01,2013-04-26 04:41:00,
2013-04-25 21:46:00,57.9,42.3,30.04,WSW,246,0.0,0.0,56,0.00,,---,0.00,0.00,VWS V14.01,2013-04-26 04:46:00,
2013-04-25 21:51:00,57.7,43.0,30.05,WSW,246,0.0,0.0,58,0.00,,---,0.00,0.00,VWS V14.01,2013-04-26 04:51:00,
2013-04-25 21:56:00,57.4,42.8,30.05,WSW,246,0.0,0.0,58,0.00,,---,0.00,0.00,VWS V14.01,2013-04-26 04:56:00,
2013-04-25 22:01:00,57.2,43.0,30.05,WSW,246,0.0,0.0,59,0.00,,---,0.00,0.00,VWS V14.01,2013-04-26 05:01:00,
2013-04-25 22:06:00,56.9,42.3,30.05,WSW,246,0.0,0.0,58,0.00,,---,0.00,0.00,VWS V14.01,2013-04-26 05:06:00,
2013-04-25 22:11:00,56.6,42.9,30.05,WSW,246,0.0,0.0,60,0.00,,---,0.00,0.00,VWS V14.01,2013-04-26 05:11:00,
2013-04-25 22:16:00,56.4,42.7,30.05,WSW,246,0.0,0.0,60,0.00,,---,0.00,0.00,VWS V14.01,2013-04-26 05:16:00,
2013-04-25 22:21:00,56.2,43.4,30.05,WSW,246,0.0,0.0,62,0.00,,---,0.00,0.00,VWS V14.01,2013-04-26 05:21:00,
2013-04-25 22:26:00,56.0,43.2,30.05,WSW,246,0.0,0.0,62,0.00,,---,0.00,0.00,VWS V14.01,2013-04-26 05:26:00,
2013-04-25 22:31:00,55.9,43.1,30.06,WSW,246,0.0,0.0,62,0.00,,---,0.00,0.00,VWS V14.01,2013-04-26 05:31:00,
2013-04-25 22:36:00,55.7,43.3,30.06,WNW,293,0.0,1.0,63,0.00,,---,0.00,0.00,VWS V14.01,2013-04-26 05:36:00,
2013-04-25 22:41:00,55.5,43.1,30.06,WNW,294,0.0,1.0,63,0.00,,---,0.00,0.00,VWS V14.01,2013-04-26 05:41:00,
2013-04-25 22:46:00,55.4,43.0,30.06,WNW,294,0.0,0.0,63,0.00,,---,0.00,0.00,VWS V14.01,2013-04-26 05:46:00,
2013-04-25 22:51:00,55.4,43.8,30.06,WNW,294,0.0,0.0,65,0.00,,---,0.00,0.00,VWS V14.01,2013-04-26 05:51:00,
2013-04-25 22:56:00,55.2,44.0,30.06,WNW,294,0.0,0.0,66,0.00,,---,0.00,0.00,VWS V14.01,2013-04-26 05:56:00,
2013-04-25 23:01:00,54.9,43.8,30.06,WNW,294,0.0,0.0,66,0.00,,---,0.00,0.00,VWS V14.01,2013-04-26 06:01:00,
2013-04-25 23:07:00,54.7,43.6,30.06,WNW,294,0.0,0.0,66,0.00,,---,0.00,0.00,VWS V14.01,2013-04-26 06:07:00,
2013-04-25 23:12:00,54.4,43.7,30.06,WNW,294,0.0,0.0,67,0.00,,---,0.00,0.00,VWS V14.01,2013-04-26 06:12:00,
2013-04-25 23:17:00,54.1,43.4,30.06,WNW,294,0.0,0.0,67,0.00,,---,0.00,0.00,VWS V14.01,2013-04-26 06:17:00,
2013-04-25 23:22:00,53.8,43.5,30.06,WNW,294,0.0,0.0,68,0.00,,---,0.00,0.00,VWS V14.01,2013-04-26 06:22:00,
2013-04-25 23:27:00,53.6,43.7,30.06,WNW,294,0.0,0.0,69,0.00,,---,0.00,0.00,VWS V14.01,2013-04-26 06:27:00,
2013-04-25 23:32:00,53.4,43.5,30.06,WNW,294,0.0,0.0,69,0.00,,---,0.00,0.00,VWS V14.01,2013-04-26 06:32:00,
2013-04-25 23:37:00,53.2,43.3,30.06,WNW,294,0.0,0.0,69,0.00,,---,0.00,0.00,VWS V14.01,2013-04-26 06:37:00,
2013-04-25 23:42:00,53.1,43.6,30.06,WNW,294,0.0,0.0,70,0.00,,---,0.00,0.00,VWS V14.01,2013-04-26 06:42:00,
2013-04-25 23:47:00,52.9,43.4,30.06,WNW,294,0.0,0.0,70,0.00,,---,0.00,0.00,VWS V14.01,2013-04-26 06:47:00,
2013-04-25 23:52:00,52.8,43.7,30.06,WNW,294,0.0,1.0,71,0.00,,---,0.00,0.00,VWS V14.01,2013-04-26 06:52:00,
2013-04-25 23:57:00,52.6,43.5,30.06,WNW,294,0.0,0.0,71,0.00,,---,0.00,0.00,VWS V14.01,2013-04-26 06:57:00,